Location: Axtheid
(49.6213°N, 11.8205°E)
Time: 12:30:58
(UTC+00:00)

CZ-2C R/B - Pass Details

Date: 24 January 2021
Orbit: 704 x 908 km, 98.1° (Epoch: 25 February)

Event Time Altitude Azimuth Distance (km) Brightness Sun altitude
Rises 18:08:05 0° 186° (S) 3,318 6.4 -21.3°
Reaches altitude 10° 18:10:29 10° 194° (SSW) 2,422 5.8 -21.7°
Maximum altitude 18:15:35 42° 264° (W) 1,215 4.5 -22.5°
Drops below altitude 10° 18:20:57 10° 334° (NNW) 2,552 6.0 -23.4°
Sets 18:23:34 0° 342° (NNW) 3,516 6.6 -23.8°
